x

9410840 - Santa Monica Pier (icac1) Weather Station

3:54 - Sun 4th Dec 2016 All times are PST. -8 hours from GMT.

  • Wind
    1mph, 2mph gusts
  • Sea Temp 59°f
  • Ar Temp 62°f
  • Sea Pressure 1015.7mb
  • 9410840 - Santa Monica Pier
  • 9410840 - Santa Monica Pier

More Historic Weather Station data

Upgrade to MSW Pro to gain access to the past 30 days of data for over 8000 Wavebouys and Weather Stations around the globe.

Join Pro

Comparision Forecast

View Surf forecast
   
Dom 12/04 3:54 1 2 mph 1015.7mb 59f 62f
3:48 2 3 mph - - -
3:42 2 3 mph 1015.9mb 59f 62f
3:36 2
mph
1015.8mb 59f 63f
3:30 2
mph
1015.8mb 59f 63f
3:24 2
mph
1015.8mb 59f 63f
3:18 2
mph
- - -
3:12 2 3 mph 1015.8mb 59f 62f
3:06 2 3 mph 1015.8mb 59f 62f
3:00 2
mph
1015.8mb 59f 62f
2:54 2 3 mph 1015.9mb 59f 63f
2:48 2
mph
- - -
2:42 2
mph
1015.9mb 59f 63f
2:36 2
mph
1015.9mb 59f 63f
2:30 1 2 mph 1016mb 59f 64f
2:24 1 2 mph 1016mb 59f 64f
2:18 1
mph
- - -
2:12 1 2 mph 1016mb 59f 63f
2:06 1 2 mph 1016mb 59f 63f
2:00 1 2 mph 1016.1mb 59f 63f
1:54 2
mph
1016.2mb 59f 63f
1:48 2
mph
- - -
1:42 2
mph
1016.3mb 59f 63f
1:36 2
mph
1016.2mb 59f 63f
1:30 2 3 mph 1016.3mb 59f 62f
1:24 2 3 mph 1016.4mb 59f 62f
1:18 2
mph
1016.4mb 59f 63f
1:12 2
mph
1016.5mb 59f 63f
1:06 2
mph
1016.6mb 59f 63f
1:00 2
mph
1016.7mb 59f 63f
12:54 1 2 mph 1016.8mb 59f 63f
12:48 2 3 mph 1016.9mb 59f 62f
12:42 2 3 mph 1017mb 59f 62f
12:36 3 5 mph 1017.2mb 59f 62f
12:30 3 5 mph 1017.3mb 59f 61f
12:24 3 5 mph 1017.4mb 59f 61f
12:18 5
mph
1017.5mb 59f 61f
12:12 5 6 mph 1017.5mb 59f 60f
12:06 6
mph
1017.7mb 59f 60f
12:00 3 6 mph 1017.7mb 59f 61f
11:54 3 6 mph 1017.8mb 59f 61f
11:48 3 6 mph 1017.9mb 59f 61f
11:42 5 6 mph 1018.1mb 59f 60f
11:36 6 7 mph 1018.2mb 59f 59f
11:30 6
mph
1018.3mb 59f 59f
11:24 6
mph
1018.3mb 59f 59f
11:18 6
mph
1018.3mb 59f 59f
11:12 6 7 mph 1018.4mb 59f 59f
11:06 6
mph
1018.5mb 59f 59f
11:00 6 7 mph 1018.6mb 59f 59f
10:54 7 8 mph 1018.7mb 59f 58f
10:48 8
mph
1018.8mb 59f 58f
10:42 7
mph
1018.8mb 59f 58f
10:36 7
mph
1018.8mb 59f 59f
10:30 6 7 mph 1018.9mb 59f 59f
10:24 5 6 mph 1018.9mb 59f 59f
10:18 5 7 mph 1019mb 59f 59f
10:12 7 9 mph 1019.1mb 59f 59f
10:06 7 9 mph 1019.1mb 59f 59f
10:00 6 8 mph 1019.2mb 59f 60f
9:54 5 7 mph 1019.2mb 59f 60f
9:48 5 6 mph 1019.1mb 59f 60f
9:42 5 6 mph 1019.1mb 59f 60f
9:36 5 7 mph 1019.1mb 59f 59f
9:30 5 7 mph 1019.2mb 59f 59f
9:24 6 7 mph 1019.1mb 59f 59f
9:18 3 6 mph 1019mb 59f 59f
9:12 2 6 mph 1018.9mb 58f 59f
9:06 5 6 mph 1018.8mb 58f 59f
9:00 3 5 mph 1018.9mb 58f 58f
8:54 2 3 mph 1018.9mb 58f 58f
8:48 3 5 mph 1018.8mb 58f 58f
8:42 2 5 mph 1018.8mb 58f 58f
8:36 3
mph
1018.8mb 58f 58f
8:30  -  1 mph 1018.8mb 58f 58f
8:24 1 2 mph 1018.9mb 58f 57f
8:18 1 6 mph 1018.8mb 58f 57f
8:12 3 5 mph 1018.7mb 58f 56f
8:06 3 7 mph 1018.8mb 58f 56f
8:00 5 7 mph 1018.6mb 58f 55f
7:54 3 7 mph 1018.6mb 58f 55f
7:48 5 6 mph 1018.6mb 58f 55f
7:42 2 5 mph 1018.5mb 58f 55f
7:36 1 7 mph 1018.5mb 58f 54f
7:30 5 9 mph 1018.4mb 58f 53f
7:24 5 7 mph 1018.3mb 58f 53f
7:18 3 6 mph 1018.4mb 58f 53f
7:12 5 7 mph 1018.4mb 58f 53f
7:06 3 8 mph 1018.3mb 58f 54f
7:00 8 10 mph 1018.3mb 58f 54f
6:54 6 8 mph 1018.3mb 58f 53f
6:48 3 6 mph 1018.3mb 58f 52f
6:42 3 6 mph 1018.3mb 58f 52f
6:36 5 6 mph 1018.3mb 58f 52f
6:30 3 6 mph 1018.2mb 58f 53f
6:24 5 6 mph 1018.1mb 58f 54f
6:18  -  3 mph 1018.2mb 58f 53f
6:12 3 5 mph 1018.1mb 58f 54f
6:06 2 6 mph 1018.1mb 58f 53f
6:00 2 3 mph 1018.1mb 58f 53f
5:54 2 6 mph 1018.1mb 58f 53f
5:48 6
mph
1018.1mb 58f 54f
5:42 3 5 mph 1018.1mb 58f 53f
5:36 2 3 mph 1018mb 58f 53f
5:30 1 2 mph 1017.9mb 58f 54f
5:24  -  2 mph 1017.9mb 58f 53f
5:18 1 3 mph 1017.8mb 58f 54f
5:12 2 3 mph 1017.8mb 58f 53f
5:06 3 6 mph 1017.9mb 58f 53f
5:00 2 6 mph 1017.8mb 58f 52f
4:54 5 8 mph 1017.7mb 58f 52f
4:48 7 8 mph 1017.8mb 58f 52f
4:42 6 7 mph 1017.8mb 58f 52f
4:36 5 6 mph 1017.7mb 58f 52f
4:30 5 6 mph 1017.7mb 58f 52f
4:24 3 6 mph 1017.8mb 58f 53f
4:18 5 9 mph 1017.8mb 58f 54f
4:12 8 9 mph 1017.7mb 59f 55f
4:06 7 10 mph 1017.6mb 59f 54f
4:00 8 10 mph 1017.6mb 58f 54f
3:54 6 8 mph 1017.6mb 58f 54f
3:48 6 7 mph 1017.6mb 58f 54f
3:42 5 6 mph 1017.7mb 58f 55f
3:36 3 5 mph 1017.7mb 58f 55f
3:30 2 5 mph 1017.7mb 58f 56f
3:24 3 6 mph 1017.7mb 58f 56f
3:18 3 6 mph 1017.8mb 58f 56f
3:12 6 7 mph 1017.8mb 58f 56f
3:06 6 7 mph 1017.8mb 58f 56f
3:00 6 8 mph 1017.8mb 58f 56f
2:54 8 9 mph 1017.8mb 58f 56f
2:48 8 9 mph 1017.8mb 58f 55f
2:42 8 9 mph 1017.9mb 59f 55f
2:36 7 9 mph 1018mb 58f 55f
2:30 6 7 mph 1018mb 58f 54f
2:24 3 6 mph 1018mb 58f 54f
2:18 5 7 mph 1018mb 58f 55f
2:12 5 6 mph 1018.2mb 58f 55f
2:06 3 6 mph 1018.1mb 59f 56f
2:00 2 5 mph 1018.2mb 59f 56f
1:54 2 5 mph 1018.2mb 59f 56f
1:48 3 6 mph 1018.2mb 59f 56f
1:42 6
mph
1018.2mb 59f 56f
1:36 5 6 mph 1018.2mb 59f 56f
1:30 2 3 mph 1018.2mb 59f 56f
1:24 3 5 mph 1018mb 59f 56f
1:18  -  3 mph 1018mb 59f 56f
1:12 3 5 mph 1018mb 59f 56f
1:06 3 6 mph 1018mb 59f 56f
1:00 3 6 mph 1017.9mb 58f 56f
12:54 3 5 mph 1017.9mb 58f 55f
12:48 5
mph
1017.9mb 58f 56f
12:42 2 3 mph 1018mb 58f 56f
12:36 3 5 mph 1018mb 58f 55f
12:30 3 5 mph 1017.9mb 58f 56f
12:24 5
mph
1017.9mb 58f 57f
12:18 1 3 mph 1018mb 58f 57f
12:12 1 2 mph 1018mb 58f 58f
12:06 2 3 mph 1017.9mb 58f 57f
12:00 2
mph
1017.9mb 58f 58f
Sáb 12/03 11:54  -  2 mph 1017.8mb 58f 57f
11:48 2
mph
1017.8mb 58f 58f
11:42 1
mph
1017.8mb 58f 58f
11:36  -  1 mph 1017.8mb 58f 58f
11:30 1 2 mph 1017.9mb 58f 59f
11:24 2 6 mph 1017.9mb 58f 60f
11:18 5 8 mph 1018mb 58f 61f
11:12 7 8 mph 1018mb 58f 62f
11:06 8 9 mph 1018mb 58f 62f
11:00 8 9 mph 1018mb 58f 63f
10:54 8 10 mph 1018mb 58f 63f
10:48 8 10 mph 1018mb 59f 63f
10:42 9 10 mph 1017.9mb 59f 63f
10:36 8 9 mph 1017.8mb 59f 62f
10:30 8 9 mph 1017.8mb 59f 61f
10:24 8
mph
1017.8mb 59f 61f
10:18 8 9 mph 1017.8mb 58f 62f
10:12 5 9 mph 1017.9mb 59f 61f
10:06 7 9 mph 1017.8mb 58f 61f
10:00 8
mph
1017.7mb - -
9:54 7
mph
1017.7mb 58f 61f
9:48 6 7 mph 1017.7mb 58f 60f
9:42 6
mph
1017.8mb 58f 59f
9:36 2 5 mph 1017.8mb 58f 59f
9:30 5
mph
1017.8mb 58f 59f
9:24 2 3 mph 1017.7mb 58f 59f
9:18 2 5 mph 1017.9mb 58f 57f
9:12 3 5 mph 1017.9mb 58f 58f
9:06 2
mph
1018mb 58f 59f
9:00 1 3 mph 1017.9mb 58f 59f
8:54 3
mph
1017.9mb 58f 59f
8:48 1 5 mph 1017.9mb 58f 59f
8:42 3 5 mph 1017.9mb 58f 59f
8:36  -  2 mph 1017.9mb 58f 58f
8:30 1 3 mph 1017.9mb 59f 59f
8:24 5
mph
1017.9mb 59f 60f
8:18  -  7 mph 1017.8mb 59f 59f
8:12 6
mph
1017.6mb 59f 59f
8:06 2
mph
1017.8mb 59f 59f
8:00 2 5 mph 1017.8mb 59f 59f
7:54 5 7 mph 1017.7mb 59f 59f
7:48 7
mph
1017.8mb 59f 59f
7:42 2 6 mph 1017.7mb 59f 59f
7:36 3 5 mph 1017.7mb 59f 60f
7:30 2 7 mph 1017.8mb 59f 60f
7:24 5 7 mph 1017.7mb 59f 60f
7:18 3 6 mph 1017.8mb 59f 61f
7:12 2 6 mph 1017.8mb 59f 60f
7:06 3 9 mph 1017.8mb 59f 60f
7:00 9 11 mph 1017.6mb 59f 60f
6:54 8 9 mph 1017.6mb 59f 60f
6:48 6 7 mph 1017.6mb 59f 62f
6:42 6 8 mph 1017.5mb 59f 62f
6:36 7
mph
1017.5mb 59f 62f
6:30 6 7 mph 1017.4mb 59f 62f
6:24 6 8 mph 1017.4mb 59f 61f
6:18 6 9 mph 1017.4mb 59f 62f
6:12 8 10 mph 1017.4mb 59f 62f
6:06 7 10 mph 1017.3mb 59f 62f
6:00 7 9 mph 1017.3mb 59f 62f
5:54 7 9 mph 1017.3mb 59f 61f
5:48 6 8 mph - - -
5:42 6 9 mph 1017.3mb 59f 62f
5:36 3 8 mph 1017.4mb 59f 63f
5:30 6 9 mph 1017.4mb 59f 63f
5:24 7 10 mph 1017.3mb 59f 63f
5:18 8 10 mph 1017.3mb 59f -
5:12 6 7 mph 1017.3mb 59f 63f
5:06 6 9 mph 1017.3mb 59f 63f
5:00 7 9 mph 1017.3mb 59f 63f
4:54 6 9 mph 1017.4mb 59f 64f
4:48 6 9 mph 1017.3mb 59f 64f
4:42 7 8 mph 1017.3mb 59f 64f
4:36 6 7 mph 1017.4mb 59f 64f
4:30 5 6 mph 1017.3mb 59f 64f
4:24 3
mph
1017.4mb 59f 64f
4:18 3 5 mph 1017.4mb 59f 63f
4:12 5 6 mph 1017.5mb 59f 64f
4:06 5 6 mph 1017.6mb 59f 64f
4:00 5 6 mph 1017.6mb 59f 64f
3:54 6 7 mph 1017.6mb 59f 64f
3:48 3 6 mph - - -
3:42 3 5 mph 1017.6mb 59f 64f
3:36 3 6 mph 1017.6mb 59f 64f
3:30 5 6 mph 1017.7mb 59f 63f
3:24 6 7 mph 1017.7mb 59f 62f
3:18 6 7 mph 1017.8mb 59f 62f
3:12 3 6 mph 1017.8mb 59f 64f
3:06 2 5 mph 1017.8mb 59f 64f
3:00 1 2 mph 1017.8mb 59f 65f
2:54 2 5 mph 1018mb 59f 64f
2:48 3 6 mph - - -
2:42 5 6 mph 1017.9mb 59f 63f
2:36 3 6 mph 1018mb 59f 64f
2:30 3 5 mph 1018mb 59f 63f
2:24 3 5 mph 1018mb 59f 63f
2:18 3 5 mph 1018mb 59f 63f
2:12 3 5 mph 1018mb 59f 63f
2:06 2 5 mph 1018mb 59f 63f
2:00 3 5 mph 1018mb 59f -
1:54 1 5 mph 1018mb 59f 63f
1:48 3 5 mph - - -
1:42 2 5 mph 1018.1mb 58f 63f
1:36 2 6 mph 1018.1mb 58f 62f
1:30 5
mph
1018.1mb 58f 61f
1:24 3 5 mph 1018.3mb 58f 62f
1:18 2 5 mph 1018.3mb 58f 62f
1:12 3 5 mph 1018.4mb 58f 62f
1:06 2 5 mph 1018.5mb 58f 62f
1:00 2 3 mph 1018.6mb 58f 63f
12:54 2 3 mph 1018.6mb 58f 63f
12:48 2 3 mph 1018.6mb 58f 62f
12:42 2 3 mph 1018.7mb 58f 62f
12:36 2
mph
1018.8mb 58f 62f
12:30 2 3 mph 1018.9mb 58f 61f
12:24 2 3 mph 1018.9mb 58f 61f
12:18 2 3 mph 1019mb 58f 61f
12:12 2 3 mph 1019mb 58f 60f
12:06 3 5 mph 1019.2mb 58f 60f
12:00 5
mph
1019.3mb 58f 60f
11:54 3
mph
1019.4mb 58f 60f
11:48 3 6 mph 1019.4mb 58f 60f
11:42 6 7 mph 1019.5mb 58f 59f
11:36 5 6 mph 1019.6mb 58f 60f
11:30 5 6 mph 1019.8mb 58f 60f
11:24 6
mph
1019.8mb 58f 60f
11:18 6 7 mph 1020mb 58f -
11:12 7
mph
1020.1mb 58f 59f
11:06 6 7 mph 1020.1mb 58f 60f
10:54 8
mph
1020.2mb 58f 59f
10:48 7
mph
1020.3mb 57f 59f
10:42 6 9 mph 1020.4mb 57f 60f
10:36 7 8 mph 1020.5mb 57f 60f
10:30 7 8 mph 1020.6mb 57f 60f
10:24 7 8 mph 1020.7mb 57f 61f
10:18 8 9 mph 1020.7mb 57f 60f
10:12 8 9 mph 1020.7mb 57f 60f
10:06 7 9 mph 1020.7mb 57f 61f
10:00 8 9 mph 1020.9mb 57f 60f
9:54 8 9 mph 1020.9mb 57f 60f
9:48 8 9 mph 1020.9mb 57f 60f
9:42 8 9 mph 1020.9mb 57f 60f
9:36 7 8 mph 1020.9mb 57f 60f
9:30 7 8 mph 1021mb 57f 59f
9:24 5 6 mph 1020.9mb 57f 59f
9:18 6
mph
1020.9mb 57f 58f
9:12 5 6 mph 1020.9mb 57f 58f
9:06 5
mph
1020.9mb 57f 58f
9:00 2
mph
1020.9mb 57f 59f
8:54 2
mph
1020.8mb 57f 57f
8:48 2 3 mph 1020.8mb 57f 56f
8:42 1
mph
1020.8mb 57f 57f
8:36  -  1 mph 1020.7mb 57f 58f
8:30  -  1 mph 1020.7mb 57f 56f
8:24  -  1 mph 1020.6mb 57f 56f
8:18  -  2 mph 1020.5mb 57f 56f
8:12  -  2 mph 1020.4mb 57f 56f
8:06 2
mph
1020.3mb 57f 55f
8:00  -  3 mph 1020.3mb 57f 55f
7:54 3
mph
1020.1mb 57f 54f
7:48 2 3 mph 1020mb 57f 53f
7:42 2 5 mph 1019.9mb 57f 54f
7:36 5 7 mph 1019.9mb 57f 54f
7:30 6 7 mph 1020mb 57f 54f
7:24 6 7 mph 1019.9mb 57f 54f
7:18 6 8 mph 1019.8mb 57f 54f
7:12 7 8 mph 1019.9mb 57f 53f
7:06 6 8 mph 1019.8mb 57f 53f
7:00 7 8 mph 1019.8mb 57f 53f
6:54 7 8 mph 1019.7mb 57f 55f
6:48 7 9 mph 1019.6mb 57f 55f
6:42 3 8 mph 1019.7mb 57f 53f
6:36 8 9 mph 1019.6mb 57f 53f
6:30 6 8 mph 1019.5mb 57f 54f
6:24 6 8 mph 1019.5mb 57f 54f
6:18 6 7 mph 1019.5mb 57f 55f
6:12 6 7 mph 1019.6mb 57f 55f
6:06 5 6 mph 1019.5mb 57f 55f
6:00 5 7 mph 1019.7mb 57f 51f
5:54 6
mph
1019.6mb 57f 55f
5:48 5 6 mph 1019.6mb 57f 56f
5:42 5 6 mph 1019.6mb 57f 55f
5:36 5
mph
1019.5mb 57f 55f
5:30 3 5 mph 1019.4mb 57f 53f
5:24 3 5 mph 1019.5mb 57f 53f
5:18 3 5 mph 1019.5mb 57f 55f
5:12 3 5 mph 1019.5mb 57f 55f
5:06 3 6 mph 1019.4mb 57f 56f
5:00 3 7 mph 1019.3mb 57f 56f
4:54 5 7 mph 1019.2mb 57f 56f
4:48 6 7 mph 1019.1mb 57f 55f
4:42 6 7 mph 1018.9mb 57f 56f
4:36 6 8 mph 1018.9mb 57f 56f
4:30 6 7 mph 1018.9mb 57f 56f
4:24 6 7 mph 1018.9mb 57f 56f
4:18 6 7 mph 1018.7mb 57f 56f
4:12 6 8 mph 1018.7mb 57f 57f
4:06 6 7 mph 1018.8mb 57f 57f
4:00 3 7 mph 1018.7mb 57f 56f
3:54 7 8 mph 1018.8mb 57f 56f
3:48 6 10 mph 1018.8mb 57f 56f
3:42 8 10 mph 1018.9mb 57f 55f
3:36 5 7 mph 1018.8mb 57f 56f
3:30 5 6 mph 1018.7mb 57f 56f
3:24 3 7 mph 1018.6mb 57f 57f
3:18 8 10 mph 1018.6mb 57f 56f
3:12 3 10 mph 1018.4mb 57f 56f
3:06 5 10 mph 1018.8mb 57f 55f
3:00 10 14 mph 1018.8mb 57f 55f
2:54 7 8 mph 1018.7mb 57f 56f
2:48 6 11 mph 1018.6mb 57f 55f
2:42 9 10 mph 1018.8mb 57f 56f
2:36 6 7 mph 1018.6mb 57f 56f
2:30 6
mph
1018.8mb 57f 57f
2:24 2 7 mph 1018.7mb 57f 57f
2:18 3 5 mph 1018.7mb 57f 57f
2:12 2 8 mph 1018.8mb 57f 57f
2:06 6 8 mph 1018.9mb 57f 58f
2:00 3 5 mph 1018.9mb 57f 58f
1:54 5 8 mph 1019mb 57f 57f
1:48 5 6 mph 1019mb 57f 57f
1:42 5 7 mph 1018.9mb 57f 59f
1:36 7
mph
1018.7mb 57f 59f
1:30 6 8 mph 1018.7mb 57f 59f
1:24 6 8 mph 1018.7mb 57f 59f
1:18 3 7 mph 1018.7mb 57f 58f
1:12 5 6 mph 1018.6mb 57f 57f
1:06 3 6 mph 1018.6mb 57f 58f
1:00 6
mph
1018.6mb 57f 58f
12:54 2 5 mph 1018.9mb 57f 58f
12:48 2 7 mph 1018.9mb 57f 58f
12:42 6 10 mph 1018.8mb 57f 58f
12:36 8 14 mph 1018.7mb 57f 59f
12:30 8 10 mph 1018.7mb 57f 58f
12:24 10 14 mph 1018.9mb 57f 57f
12:18 6 8 mph 1018.7mb 57f 58f
12:12 5 9 mph 1018.9mb 57f 58f
12:06 6 7 mph 1018.9mb 57f 58f
12:00 5 9 mph 1018.9mb 57f 58f
Sex 12/02 11:54 7 11 mph 1019mb 57f 59f
11:48 8 10 mph 1018.8mb 57f 58f
11:42 8 9 mph 1018.8mb 57f 58f
11:36 7 11 mph 1018.7mb 57f 58f
11:30 10 11 mph 1018.7mb 57f 58f
11:24 8 9 mph 1018.6mb 57f 58f
11:18 5 7 mph 1018.8mb 58f 57f
11:12 5 6 mph 1018.8mb 58f 59f
11:06 5 6 mph 1018.7mb 58f 59f
11:00  -  3 mph 1018.8mb 58f 58f
10:54 2 5 mph 1018.8mb 58f 58f
10:48 1 5 mph 1018.8mb 58f 57f
10:42 2
mph
1018.8mb 58f 57f
10:36 2 3 mph 1018.8mb 58f 58f
10:30 2 3 mph 1019mb 58f 58f
10:24 3
mph
1019.1mb 58f 58f
10:18 2 5 mph 1019mb 58f 58f
10:12 2 7 mph 1018.9mb 58f 58f
10:06 6 9 mph 1018.9mb 58f 59f
10:00 6 8 mph 1018.8mb 58f 58f
9:54 7 8 mph 1018.9mb 58f 58f
9:48 7 8 mph 1018.8mb 58f 59f
9:42 5 6 mph 1018.7mb 58f 60f
9:36 5 6 mph 1018.8mb 58f 60f
9:30 7 8 mph 1018.6mb 58f 59f
9:24 7 8 mph 1018.6mb 58f 60f
9:18 6 8 mph 1018.5mb 58f 60f
9:12 6 14 mph 1018.5mb 58f 61f
9:06 11 17 mph 1018.4mb 58f 62f
9:00 9 16 mph 1018.1mb 58f 62f
8:54 13 23 mph 1017.9mb 58f 62f
8:48 9 23 mph 1017.8mb 58f 62f
8:42 13 24 mph 1017.9mb 58f 62f
8:36 13 18 mph 1017.9mb 58f 62f
8:30 16 21 mph 1018mb 58f 62f
8:24 17 25 mph 1018.1mb 58f 62f
8:18 17 26 mph 1018.1mb 58f 62f
8:12 10 17 mph 1018.3mb 58f 62f
8:06 10 17 mph 1018.2mb 58f 61f
8:00 9 17 mph 1018mb 58f 61f
7:54 11 17 mph 1018mb 58f 61f
7:48 14 17 mph - - -
7:42 11 15 mph 1018mb 58f 60f
7:36 11 16 mph 1017.9mb 58f 60f
7:30 11 16 mph 1018mb 58f 61f
7:24 14 17 mph 1017.8mb 58f 61f
7:18 11 14 mph 1017.8mb 58f 61f
7:12 8 10 mph 1017.9mb 58f 61f
7:06 5 8 mph 1018mb 58f 60f
7:00 8 9 mph 1018mb 58f 61f
6:54 7 9 mph 1018mb 58f 61f
6:48 6 8 mph 1018mb 58f 61f
6:42 5 8 mph 1017.9mb 58f 61f
6:36 6 7 mph 1018mb 58f 61f
6:30 3 7 mph 1017.9mb 58f 61f
6:24 5 7 mph 1017.9mb 58f 62f
6:18 3 6 mph 1017.8mb 58f 61f
6:12 3 5 mph 1017.8mb 58f 61f
6:06 1 2 mph 1017.8mb 58f 60f
6:00  -  1 mph 1017.7mb 58f 60f
5:54 1 5 mph 1017.7mb 58f 61f
5:48 2 5 mph - - -
5:42 2 6 mph 1017.6mb 58f 61f
5:36 2 7 mph 1017.6mb 58f 61f
5:30 5 7 mph 1017.5mb 58f 61f
5:24 5 8 mph 1017.4mb 58f 61f
5:18 6 7 mph 1017.4mb 58f 61f
5:12 5 9 mph 1017.4mb 58f 62f
5:06 5 7 mph 1017.2mb 58f 62f
5:00 7 9 mph 1017.1mb 58f 62f
4:54 6 11 mph 1017.1mb 58f 62f
4:48 6 8 mph - - -
4:42 5 9 mph 1017.1mb 58f 62f
4:36 7 13 mph 1017.1mb 58f 62f
4:30 7 13 mph 1017.1mb 58f 63f
4:24 8 11 mph 1017.1mb 58f 63f
4:18 8 16 mph 1017.1mb 59f 63f
4:12 13 18 mph 1017.1mb 59f 63f
4:06 9 16 mph 1017.1mb 59f 64f
4:00 13 20 mph 1017mb 59f 63f
3:54 11 24 mph 1017mb 59f 64f
3:48 15 23 mph - - -
3:30 15 30 mph 1016.5mb 59f 64f
3:24 24 32 mph 1016.5mb 59f 64f
3:18 15 30 mph - - -
3:12 22 34 mph 1016.4mb 59f 64f
3:06 17 34 mph 1016.3mb 59f 64f
3:00 14 29 mph 1016.2mb 59f 64f
2:54 10 23 mph 1016.3mb 59f 64f
2:48 17 25 mph 1016.2mb 59f 64f
1:54 18 29 mph 1015.9mb 59f 64f
1:48 18 30 mph 1016mb 59f 64f
1:12 21 32 mph 1016mb 59f 64f
1:06 22 31 mph 1015.9mb 59f 64f
1:00 22 33 mph 1016mb 59f 64f
12:54 20 32 mph 1016mb 59f 64f
12:48 18 28 mph 1016.1mb 59f 64f
12:42 14 28 mph 1016.2mb 59f 64f
12:36 14 28 mph 1016.3mb 59f 64f
12:30 14 22 mph 1016.4mb 59f 64f
12:24 8 20 mph 1016.5mb 59f 64f
12:18 17 28 mph 1016.6mb 59f 64f
12:12 20 26 mph 1016.5mb 59f 64f
12:06 14 25 mph 1016.5mb 59f 64f
12:00 17 26 mph 1016.5mb 59f 64f
11:54 15 28 mph 1016.6mb 59f 64f
11:48 13 24 mph 1016.6mb 59f 64f
11:42 15 29 mph 1016.7mb 59f 64f
11:36 14 26 mph 1016.7mb 59f 64f
11:30 14 24 mph 1016.6mb 59f 64f
11:24 17 22 mph 1016.6mb 59f 64f
11:18 21 29 mph 1016.7mb 59f 63f
11:12 15 21 mph 1016.7mb 59f 64f
11:06 13 22 mph 1016.8mb 59f 64f
11:00 7 24 mph 1016.8mb 59f 64f
10:54 11 21 mph 1016.9mb 59f 63f
10:48 14 21 mph 1016.9mb 59f 64f
10:42 16 22 mph 1017mb 59f 63f
10:36 14 18 mph 1017.1mb 59f 63f
10:30 14 21 mph 1017mb 59f 62f
10:24 11 20 mph 1016.9mb 59f 63f
10:18 8 17 mph 1017mb 59f 63f
10:12 10 17 mph 1017.1mb 59f 62f
10:06 13 23 mph 1017.3mb 59f 62f
10:00 14 25 mph 1017.3mb 59f 62f
9:54 15 22 mph 1017.2mb 59f 62f
9:48 15 24 mph 1017.1mb 59f 62f
9:42 10 21 mph 1017.1mb 59f 62f
9:36 9 21 mph 1017.1mb 59f 62f
9:30 15 24 mph 1017mb 59f 61f
9:24 13 22 mph 1016.9mb 59f 61f
9:18 17 26 mph 1016.8mb 59f 61f
9:12 14 20 mph 1016.8mb 59f 61f
9:06 15 22 mph 1016.8mb 59f 60f
9:00 15 20 mph 1016.8mb 59f 60f
8:54 16 22 mph 1016.9mb 59f 60f
8:48 14 22 mph 1016.9mb 59f 60f
8:42 17 22 mph 1017mb 59f 60f
8:36 13 15 mph 1017.2mb 59f 60f
8:30 8 10 mph 1017.3mb 59f 60f
8:24 3 7 mph 1017.2mb 59f 59f
8:18 6 10 mph 1017.1mb 59f 59f
8:12 10 15 mph 1017mb 59f 59f
8:06 14 21 mph 1016.9mb 59f 59f
8:00 11 16 mph 1017mb 59f 58f
7:54 10 21 mph 1017.1mb 59f 59f
7:48 13 16 mph 1017.1mb 59f 58f
7:42 10 16 mph 1016.9mb 59f 58f
7:36 10 18 mph 1016.7mb 59f 59f
7:30 15 20 mph 1016.7mb 59f 59f
7:24 14 18 mph 1016.7mb 59f 58f
7:18 13 20 mph 1016.6mb 59f 59f
7:12 15 21 mph 1016.6mb 59f 58f
7:06 15 18 mph 1016.6mb 59f 58f
7:00 11 17 mph 1016.6mb 59f 57f
6:54 14 18 mph 1016.5mb 59f 58f
6:48 14 18 mph 1016.4mb 59f 58f
6:42 15 17 mph 1016.4mb 59f 58f
6:36 13 18 mph 1016.3mb 59f 57f
6:30 10 13 mph 1016.2mb 59f 57f
6:24 11 15 mph 1016.3mb 59f 57f
6:18 11 22 mph 1016.1mb 59f 57f
6:12 17 24 mph 1015.9mb 59f 58f
6:06 16 26 mph 1015.8mb 59f 58f
6:00 18 24 mph 1015.5mb 59f 58f
5:54 14 22 mph 1015.4mb 59f 57f
5:48 16 21 mph 1015.3mb 59f 57f
5:42 11 18 mph 1015.3mb 59f 57f
5:36 15 23 mph 1015.3mb 59f 57f
5:30 16 23 mph 1015.2mb 59f 58f
5:24 18 25 mph 1015.1mb 59f 58f
5:18 21 26 mph 1014.9mb 59f 59f
5:12 20 24 mph 1014.9mb 59f 59f
5:06 17 25 mph 1014.9mb 59f 59f
5:00 15 23 mph 1014.6mb 59f 59f
4:54 18 26 mph 1014.5mb 59f 59f
4:48 17 25 mph 1014.4mb 59f 59f
4:42 17 23 mph 1014.4mb 59f 58f
4:36 17 28 mph 1014.5mb 59f 58f
4:30 20 28 mph 1014.5mb 59f 58f
4:24 11 21 mph 1014.5mb 59f 58f
4:18 9 18 mph 1014.6mb 59f 58f
4:12 10 16 mph 1014.5mb 59f 59f
4:06 11 22 mph 1014.5mb 59f 59f
4:00 14 22 mph 1014.5mb 59f 59f
3:54 17 24 mph 1014.3mb 59f 59f
3:48 14 29 mph 1014.4mb 59f 59f
3:42 17 26 mph 1014.3mb 59f 59f
3:36 11 26 mph 1014.3mb 59f 59f
3:30 17 23 mph 1014.2mb 59f 59f
3:24 10 14 mph 1014.4mb 59f 59f
3:18 11 21 mph 1014.4mb 59f 59f
3:12 11 16 mph 1014.4mb 59f 59f
3:06 9 22 mph 1014.4mb 59f 59f
3:00 14 20 mph 1014.3mb 59f 59f
2:54 11 24 mph 1014.2mb 59f 59f
2:48 15 21 mph 1014.2mb 59f 59f
2:42 14 26 mph 1014.3mb 60f 59f
2:36 15 22 mph 1014.2mb 60f 59f
2:30 16 24 mph 1014.2mb 60f 59f
2:24 16 20 mph 1014.3mb 60f 59f
2:18 16 21 mph 1014.3mb 60f 59f
2:12 11 18 mph 1014.3mb 60f 59f
2:06 13 21 mph 1014.3mb 60f 59f
2:00 14 21 mph 1014.3mb 59f 59f
1:54 15 22 mph 1014.4mb 60f 59f
1:48 15 22 mph 1014.4mb 59f 59f
1:42 14 21 mph 1014.4mb 59f 59f
1:36 16 23 mph 1014.3mb 59f 59f
1:30 14 25 mph 1014.4mb 60f 59f
1:24 17 24 mph 1014.3mb 60f 59f
1:18 16 23 mph 1014.3mb 60f 59f
1:12 21 28 mph 1014.2mb 60f 59f
1:06 20 25 mph 1014.2mb 60f 59f
1:00 20 25 mph 1014.2mb 60f 59f
12:54 18 25 mph 1014.1mb 60f 59f
12:48 18 29 mph 1014mb 60f 59f
12:42 21 28 mph 1014mb 60f 59f
12:36 20 28 mph 1013.9mb 60f 59f
12:30 20 26 mph 1013.9mb 60f 59f
12:24 18 29 mph 1013.9mb 60f 59f
12:18 21 33 mph 1014mb 60f 59f
12:12 21 31 mph 1013.9mb 60f 59f
12:06 22 30 mph 1013.9mb 60f 59f
12:00 23 33 mph 1013.9mb 60f 59f
Qui 12/01 11:54 22 32 mph 1013.9mb 60f 59f
11:48 22 28 mph 1014mb 60f 59f
11:42 17 26 mph 1014mb 60f 59f
11:36 17 25 mph 1014.1mb 60f 60f
11:30 18 25 mph 1014.1mb 60f 60f
11:24 21 26 mph 1014.1mb 60f 60f
11:18 14 21 mph 1014.2mb 60f 60f
11:12 11 21 mph 1014.3mb 60f 59f
11:06 15 22 mph 1014.3mb 60f 60f
11:00 16 22 mph 1014.2mb 60f 60f
10:54 10 16 mph 1014.2mb 60f 59f
10:48 10 20 mph 1014.1mb 60f 59f
10:42 13 20 mph 1014.2mb 60f 59f
10:36 14 22 mph 1014.1mb 60f 59f
10:30 16 21 mph 1014mb 60f 59f
10:24 16 24 mph 1014.1mb 60f 59f
10:18 17 22 mph 1014mb 60f 59f
10:12 14 21 mph 1014mb 60f 59f
10:06 15 24 mph 1014.1mb 60f 59f
10:00 20 28 mph 1014.1mb 60f 59f
9:54 17 26 mph 1014.2mb 60f 59f
9:48 18 25 mph 1014.1mb 60f 59f
9:42 14 18 mph 1014.1mb 60f 59f
9:36 13 20 mph 1014.1mb 60f 59f
9:30 10 17 mph 1014.1mb 60f 59f
9:24 8 14 mph 1014mb 60f 59f
9:18 6 13 mph 1014mb 60f 59f
9:12 3 9 mph 1014mb 60f 59f
9:06 6 10 mph 1014mb 60f 59f
9:00  -  8 mph 1014mb 60f 58f
8:54 6 7 mph 1014mb 60f 58f
8:48 6 11 mph 1014mb 60f 59f
8:42 5 9 mph 1014.1mb 60f 59f
8:36 6 9 mph 1014.1mb 60f 59f
8:30 6 10 mph 1014.1mb 60f 59f
8:24 3 7 mph 1014.1mb 60f 59f
8:18 6 11 mph 1014mb 60f 59f
8:12 6 13 mph 1013.9mb 60f 59f
8:06 6 9 mph 1013.9mb 60f 59f
8:00 3 5 mph 1013.9mb 60f 59f
7:54 1 3 mph 1013.8mb 60f 59f
7:48  -  5 mph - - -
7:42 3 9 mph 1013.7mb 60f 60f
7:36 2 5 mph 1013.7mb 60f 60f
7:30 5 7 mph 1013.7mb 60f 60f
7:24 5 6 mph 1013.7mb 60f 60f
7:18 2 7 mph 1013.8mb 60f 60f
7:12 3 8 mph 1013.8mb 60f 60f
7:06 6 8 mph 1013.8mb 60f 60f
7:00 8 9 mph 1013.8mb 60f 60f
6:54 7 8 mph 1013.8mb 60f 59f
6:48 5 7 mph 1013.8mb 60f 59f
6:30 7 9 mph 1013.7mb 60f 59f
6:24 8 11 mph 1013.7mb 60f 59f
6:18 13 15 mph 1013.6mb 60f 60f
6:12 14 15 mph 1013.5mb 60f 59f
6:06 13 15 mph 1013.5mb 60f 59f
6:00 14 17 mph 1013.5mb 60f 59f
5:54 15 17 mph 1013.4mb 60f 59f
5:48 16 17 mph 1013.4mb 60f 59f
5:30 15 17 mph 1013.4mb 60f 59f
5:24 14 17 mph 1013.4mb 60f 59f
5:18 15 18 mph - - -
5:12 17 18 mph 1013.6mb 60f 59f
5:06 16 18 mph 1013.7mb 61f 59f
5:00 17 18 mph 1013.6mb 61f 59f
4:54 16 18 mph 1013.6mb 61f 59f
4:48 15 17 mph 1013.5mb 61f 59f
4:42 15 16 mph 1013.5mb 61f 59f
4:36 15 16 mph 1013.5mb 61f 59f
4:30 14 15 mph 1013.4mb 61f 59f
4:24 14 15 mph 1013.3mb 61f 59f
4:18 13 14 mph - - -
4:12 13 14 mph 1013.3mb 61f 59f
4:06 11 14 mph 1013.3mb 61f 59f
4:00 10 13 mph 1013.2mb 61f 59f
3:54 9 11 mph 1013.1mb 61f 60f
3:48 9 10 mph - - -
3:42 9 11 mph 1013.1mb 61f 60f
3:36 10 11 mph 1013.1mb 61f 60f
3:30 9
mph
1013.1mb 61f 60f
3:24 9 10 mph 1013.1mb 61f 60f
3:18 9 10 mph - - -
3:12 9 10 mph 1013.3mb 60f 60f
3:06 9 10 mph 1013.2mb 60f 60f
3:00 10
mph
1013.2mb 60f 60f
2:54 9 11 mph 1013.3mb 60f 60f
2:48 10 11 mph 1013.4mb - -
2:42 9 10 mph 1013.4mb 60f 60f
2:36 9
mph
1013.4mb 60f 60f
2:30 8 9 mph 1013.4mb 60f -
2:24 9
mph
1013.4mb 60f 60f
2:18 7 8 mph 1013.3mb 60f 60f
2:12 6 7 mph 1013.2mb 60f 60f
2:06 6
mph
1013.3mb 60f 61f
2:00 6
mph
1013.4mb 60f 61f
1:54 6 7 mph 1013.5mb 60f 61f
1:48 6 7 mph - - -
1:42 6 7 mph 1013.7mb 60f 61f
1:36 6
mph
1013.7mb 60f 61f
1:30 6 7 mph 1013.7mb 60f 61f
1:24 8
mph
1013.8mb 60f 60f
1:18 8 9 mph 1013.8mb 60f 60f
1:12 8 9 mph 1013.9mb 60f 60f
1:06 7 8 mph 1013.8mb 60f 60f
1:00 7
mph
1013.7mb 60f 60f
12:54 7
mph
1013.7mb 60f 60f
12:48 7
mph
1013.9mb 60f 61f
12:42 6
mph
1014.1mb 60f 61f
12:36 6 7 mph 1014.1mb 60f 61f
12:30 6
mph
1014.2mb 60f 61f
12:24 6
mph
1014.3mb 60f 60f
12:18 6
mph
1014.6mb 60f 61f
12:12 6
mph
1014.6mb 60f 61f
12:06 6
mph
1014.5mb 60f 60f
12:00 6
mph
1014.7mb 60f 60f
11:54 6
mph
1014.8mb 60f 60f
11:48 6
mph
1014.9mb 60f 60f
11:42 6 7 mph 1015mb 60f 60f
11:36 6
mph
1015mb 60f 60f
11:30 5 7 mph 1015.2mb 60f 60f
11:24 6 7 mph 1015.3mb 60f 60f
11:18 6
mph
1015.4mb 60f 60f
11:12 5 7 mph 1015.6mb 60f 60f
11:06 7
mph
1015.7mb 60f 60f
11:00 6 7 mph 1015.7mb 60f 60f
10:54 6 7 mph 1015.8mb 60f 60f
10:48 5 7 mph 1015.8mb 60f 61f
9:54 6 9 mph 1016.6mb 60f 60f
9:48 7 8 mph 1016.6mb 60f 59f
9:30 3 6 mph 1016.8mb 60f 59f
9:24 3 5 mph 1016.8mb 60f 59f
9:18  -  mph 1016.8mb 60f 59f
9:12  -  1 mph 1016.8mb 60f 58f
9:06 1 2 mph 1016.8mb 60f 58f
9:00 2 3 mph 1016.7mb 60f 58f
8:54 2 3 mph 1016.6mb 60f 58f
8:48  -  3 mph 1016.5mb 60f 58f
8:42 3 5 mph 1016.4mb 60f 58f
8:36  -  5 mph 1016.3mb 59f 58f
8:30 2 5 mph 1016.2mb 59f 58f
8:24 6 8 mph 1016.1mb 59f 58f
8:18 3 6 mph 1016.1mb 60f 58f
8:12 2 3 mph 1016mb 60f 57f
8:06 1 3 mph 1016.1mb 60f 57f
8:00 2 3 mph 1016mb 60f 56f
7:54 2 5 mph 1016mb 60f 56f
7:48 2 3 mph 1015.9mb 60f 56f
7:42 3 5 mph 1015.7mb 60f 55f
7:36 5 6 mph 1015.6mb 60f 55f
7:30 6 7 mph 1015.5mb 60f 55f
7:24 5
mph
1015.4mb 60f 55f
7:18 3 5 mph 1015.3mb 60f 55f
7:12 3 6 mph 1015.3mb 60f 55f
7:06 5
mph
1015.2mb 60f 55f
7:00 5 6 mph 1015mb 60f 55f
6:54 6
mph
1015mb 60f 54f
6:48 5
mph
1015mb 60f 54f
6:42 5 6 mph 1015.1mb 60f 55f
6:36 5 6 mph 1015mb 60f 54f
6:30 5 6 mph 1014.9mb 60f 54f
6:24 6 7 mph 1014.7mb 60f 54f
6:18 6 8 mph 1014.7mb 60f 54f
6:12 7 9 mph 1014.6mb 60f 54f
6:06 6 8 mph 1014.6mb 60f 54f
6:00 6 7 mph 1014.6mb 60f 54f
5:54 6 7 mph 1014.6mb 60f 54f
5:48 6 7 mph 1014.7mb 60f 55f
5:42 5 7 mph 1014.7mb 60f 55f
5:36 6 7 mph 1014.7mb 60f 55f
5:30 6 7 mph 1014.7mb 60f 55f
5:24 6
mph
1014.9mb 60f 55f
5:18 5 7 mph 1014.9mb 60f 55f
5:12 6
mph
1014.8mb 60f 55f
5:06 5
mph
1014.8mb 60f 55f
5:00 3 5 mph 1014.8mb 60f 55f
4:54 5 6 mph 1014.9mb 60f 55f
4:48 5 7 mph 1014.7mb 60f 55f
4:42 5 7 mph 1014.5mb 60f 55f
4:36 5 6 mph 1014.6mb 60f 55f
4:30 5 7 mph 1014.7mb 60f 55f
4:24 5 8 mph 1014.6mb 60f 55f
4:18 6 8 mph 1014.6mb 60f 55f
4:12 5 7 mph 1014.6mb 60f 55f
4:06 6 8 mph 1014.6mb 60f 55f
4:00 6 8 mph 1014.7mb 60f 55f
3:54 5 7 mph 1014.9mb 60f 55f
3:48 6 7 mph 1014.9mb 60f 55f
3:42 7 9 mph 1014.9mb 60f 55f
3:36 6 8 mph 1014.8mb 60f 54f
3:30 6 7 mph 1014.9mb 60f 55f
3:24 5 6 mph 1015mb 60f 55f
3:18 5 7 mph 1015.2mb 60f 55f
3:12 6 9 mph 1015.2mb 60f 55f
3:06 7 8 mph 1015.2mb 60f 55f
3:00 6 8 mph 1015.4mb 60f 55f
2:54 5 8 mph 1015.4mb 60f 55f
2:48 7 10 mph 1015.3mb 60f 55f
2:42 7 10 mph 1015.4mb 60f 55f
2:36 8 10 mph 1015.6mb 60f 55f
2:30 9 10 mph 1015.6mb 60f 54f
2:24 8 9 mph 1015.7mb 60f 54f
2:18 8 10 mph 1015.8mb 60f 54f
2:12 8 10 mph 1015.9mb 60f 55f
2:06 8 9 mph 1016mb 60f 54f
2:00 7 9 mph 1015.9mb 60f 54f
1:54 8 11 mph 1015.8mb 60f 54f
1:48 8 10 mph 1015.9mb 60f 54f
1:42 8 11 mph 1015.9mb 60f 54f
1:36 9 11 mph 1016mb 60f 54f
1:30 10 11 mph 1015.7mb 60f 54f
1:24 9 11 mph 1015.7mb 60f 53f
1:18 10 11 mph 1015.8mb 60f 53f
1:12 8 9 mph 1016mb 60f 53f
1:06 8 10 mph 1016.1mb 60f 53f
1:00 8 10 mph 1016mb 60f 53f
12:54 8 10 mph 1016mb 60f 53f
12:48 7 9 mph 1016.1mb 60f 54f
12:42 7 9 mph 1016.2mb 60f 54f